7 * 24
多渠道服务支持
STARLINK-38331(NORAD 100538)是美国太空探索技术公司(SpaceX)星链星座的低轨通信卫星,2026年8月22日由猎鹰9号火箭从美国空军西部试验场发射入轨,所属发射批次搭载27颗星链卫星,当前处于在轨正常服役状态。该卫星采用Starlink V1.0平台,运行于近地点370公里、远地点375公里、倾角约70度的近地极轨道,轨道周期92分钟,配备相控阵通信天线、氪离子推进系统及自主碰撞规避功能,主要承担全球高速卫星互联网信号中继传输任务,可为偏远、通信欠发达区域提供千兆级低延迟宽带接入,同时可服务航空、应急通信等领域,其轨道参数由北美防空司令部持续跟踪更新。
美国
(US)
| 数据来源 | 国际轨道数据 |
| 星历时间: | 2026-09-21T14:57:12+0800 5小时前 查看轨道信息 |
| 半长轴: | 6715.354km |
| 偏心率: | 0.0003564 |
| 轨道倾角: | 70.000° |
| 近地点辐角 | 273.345° |
| 升交点赤经 | 132.903° |
| 平近点角 | 86.735° |
| 近地点: | 334.823km |
| 远地点: | 339.611km |
| 周期: | 91.277分钟 |
| 每日圈数: | 15.776091 |